Nassau, Bahamas

9:36 AM EDT on May 27, 2017 (GMT -0400)
Nassau International

Weather History for MYNN - May, 2013

Change the Weather History Date:

Tuesday, May 7, 2013

  Actual Average Record
Temperature  
Mean Temperature 75 °F -  
Max Temperature 85 °F 85 °F 88 °F (2012)
Min Temperature 65 °F 71 °F 61 °F (2017)
Cooling Degree Days 10    
Growing Degree Days 25 (Base 50)    
Moisture  
Dew Point 65 °F    
Average Humidity 67    
Maximum Humidity 83    
Minimum Humidity 42    
Precipitation  
Precipitation 0.00 in 0.19 in - ()
Sea Level Pressure  
Sea Level Pressure 30.04 in    
Wind  
Wind Speed 3 mph ()    
Max Wind Speed 10 mph    
Max Gust Speed -    
Visibility 6.9 miles    
Events      
Averages and records for this station are not official NWS values.
T = Trace of Precipitation, MM = Missing Value Source: Averaged Metar Reports

Daily Weather History Graph

Daily Weather History Graph

Search for Another Location

Airport or City:

Trip Planner

Search our weather history database for the weather conditions in past years. The results will help you decide how hot, cold, wet, or windy it might be!

Date:

Astronomy

May. 07, 2013 Rise Set
Actual Time 6:29 AM EDT 7:43 PM EDT
Civil Twilight 6:05 AM EDT 8:07 PM EDT
Nautical Twilight 5:36 AM EDT 8:36 PM EDT
Astronomical Twilight 5:06 AM EDT 9:06 PM EDT
Moon 4:49 AM EDT (5/7) 5:51 PM EDT (5/7)
Length of Visible Light 14h 02m
Length of Day
13h 13m
Waning Crescent, 5% of the Moon is Illuminated
May 7
Waning Crescent
May 9
New
May 18
First Quarter
May 25
Full
May 31
Last Quarter

Hourly Weather History & Observations

Time (EDT) Temp. Heat Index Dew Point Humidity Pressure Visibility Wind Dir Wind Speed Gust Speed Precip Events Conditions
12:00 AM 73.4 °F - 62.6 °F 69% 30.03 in 6.2 mi Calm Calm - N/A   Partly Cloudy
2:00 AM 69.8 °F - 60.8 °F 73% 30.01 in 6.2 mi Calm Calm - N/A   Partly Cloudy
3:00 AM 69.8 °F - 60.8 °F 73% 29.99 in 6.2 mi Calm Calm - N/A   Partly Cloudy
4:00 AM 68.0 °F - 60.8 °F 78% 29.99 in 6.2 mi Calm Calm - N/A   Partly Cloudy
5:00 AM 67 °F - 62 °F 77% 30.01 in 9 mi Calm Calm - -   Scattered Clouds
5:00 AM 68.0 °F - 60.8 °F 78% 30.00 in 6.2 mi Calm Calm - N/A   Partly Cloudy
6:00 AM 69.8 °F - 60.8 °F 73% 30.01 in 6.2 mi Calm Calm - N/A   Partly Cloudy
7:00 AM 69.8 °F - 60.8 °F 73% 30.03 in 6.2 mi Calm Calm - N/A   Partly Cloudy
8:00 AM 73 °F - 65 °F 70% 30.04 in 9 mi NNE 3.5 mph - -   Scattered Clouds
8:00 AM 73.4 °F - 64.4 °F 73% 30.03 in 6.2 mi NNE 3.5 mph - N/A   Partly Cloudy
9:00 AM 77.0 °F - 62.6 °F 61% - 6.2 mi WSW 6.9 mph - N/A   Partly Cloudy
10:00 AM 77.0 °F - 62.6 °F 61% 30.05 in 6.2 mi Variable 3.5 mph - N/A   Partly Cloudy
11:00 AM 83 °F - 64 °F 44% 30.06 in 9 mi WNW 5.8 mph - -   Scattered Clouds
11:00 AM 82.4 °F 83.9 °F 64.4 °F 54% 30.05 in 6.2 mi Variable 5.8 mph - N/A   Partly Cloudy
12:00 PM 80.6 °F 82.3 °F 64.4 °F 58% 30.07 in 6.2 mi Variable 5.8 mph - N/A   Partly Cloudy
1:00 PM 80.6 °F 82.3 °F 64.4 °F 58% 30.05 in 6.2 mi WNW 5.8 mph - N/A   Partly Cloudy
2:00 PM 85 °F - 65 °F 42% 30.04 in 9 mi West 3.5 mph - -   Scattered Clouds
2:00 PM 84.2 °F 86.6 °F 66.2 °F 55% 30.03 in 6.2 mi West 3.5 mph - N/A   Partly Cloudy
3:00 PM 80.6 °F 82.3 °F 64.4 °F 58% 30.02 in 6.2 mi North 9.2 mph - N/A   Partly Cloudy
4:00 PM 80.6 °F 82.7 °F 66.2 °F 61% 30.01 in 6.2 mi NNW 6.9 mph - N/A   Partly Cloudy
5:00 PM 81 °F - 70 °F 61% 30.01 in 9 mi North 10.4 mph - -   Partly Cloudy
5:00 PM 80.6 °F 83.9 °F 69.8 °F 70% 30.01 in 6.2 mi North 10.4 mph - N/A   Scattered Clouds
6:00 PM 78.8 °F - 68.0 °F 69% 30.02 in 6.2 mi North 6.9 mph - N/A   Scattered Clouds
7:00 PM 77.0 °F - 66.2 °F 69% 30.03 in 6.2 mi NNE 3.5 mph - N/A   Scattered Clouds
8:00 PM 76 °F - 68 °F 70% 30.05 in 9 mi North 4.6 mph - -   Scattered Clouds
8:00 PM 75.2 °F - 68.0 °F 78% 30.05 in 6.2 mi North 4.6 mph - N/A   Partly Cloudy
9:00 PM 75.2 °F - 66.2 °F 73% 30.06 in 6.2 mi NE 3.5 mph - N/A   Scattered Clouds
10:00 PM 75.2 °F - 66.2 °F 73% 30.08 in 6.2 mi East 2.3 mph - N/A   Scattered Clouds
11:00 PM 75 °F - 70 °F 81% 30.11 in 9 mi NE 3.5 mph - -   Scattered Clouds
11:00 PM 75.2 °F - 69.8 °F 83% 30.10 in 6.2 mi NE 3.5 mph - N/A   Partly Cloudy